Regional Weather Roundup
Issued by NWS Green Bay, WI

Home | Current Version | Previous Version | Graphics & Text | Print | Product List | Glossary Off
Versions: 1 2 3 4 5 6 7 8 9 10 11 12 13 14 15 16 17 18 19 20 21 22 23 24 25 26 27 28 29 30 31 32 33 34 35 36 37 38 39 40 41 42 43 44 45 46 47 48 49 50

393
ASUS43 KGRB 240800
RWRGRB

NORTH-CENTRAL AND NORTHEAST WISCONSIN REGIONAL WEATHER ROUNDUP
NATIONAL WEATHER SERVICE GREEN BAY WI
300 AM CDT SUN JUL 24 2016

WIZ005-009-010>012-018-019-240900-
NORTH CENTRAL WISCONSIN

CITY           SKY/WX    TMP DP  RH WIND       PRES   REMARKS
IRONWOOD       CLOUDY    70  66  88 S9        29.79S
MANITOWISH WTR NOT AVBL
ARBOR VITAE    NOT AVBL
EAGLE RIVER    NOT AVBL
LAND O LAKES   NOT AVBL
RHINELANDER    MOCLDY    70  68  93 S5        29.86F
PHILLIPS       CLOUDY    68  67  99 CALM      29.84R
ANTIGO         NOT AVBL
TOMAHAWK       CLOUDY    67  66  96 CALM      29.85S FOG
MERRILL        CLOUDY    69  69 100 CALM      29.85S
$$

WIZ013-073-240900-
NORTHEAST WISCONSIN

CITY           SKY/WX    TMP DP  RH WIND       PRES   REMARKS
IRON MOUNTAIN  CLOUDY    69  67  93 SE5       29.84F
MARINETTE      CLOUDY    73  71  93 MISG        N/A
$$

WIZ017-030-035>037-045-240900-
CENTRAL WISCONSIN

CITY           SKY/WX    TMP DP  RH WIND       PRES   REMARKS
MEDFORD        NOT AVBL
WAUSAU         CLOUDY    70  68  93 S8        29.82F
MOSINEE        NOT AVBL
MARSHFIELD     CLOUDY    71  68  90 S7        29.83F
WISC RAPIDS    CLOUDY    71  68  90 S5        29.85F
STEVENS POINT  NOT AVBL
WAUPACA        NOT AVBL
SHAWANO        NOT AVBL
CLINTONVILLE   LGT RAIN  70  68  94 S10       29.84F
WAUTOMA        CLOUDY    71  70  96 NE3       29.86R
$$

WIZ038-039-048-051-240900-
FOX VALLEY

CITY           SKY/WX    TMP DP  RH WIND       PRES   REMARKS
NWS GREEN BAY  RAIN      71  71 100 S9        29.86F
APPLETON       CLOUDY    70  70 100 SE7       29.84F
OSHKOSH        TSTM      72  69  90 SE13      29.84F
FOND DU LAC    TSTM      73  69  87 S10       29.84F
$$

WIZ022-050-052-240900-
EAST CENTRAL WISCONSIN

CITY           SKY/WX    TMP DP  RH WIND       PRES   REMARKS
EPHRAIM        CLOUDY    71  68  92 S6        29.86S
WASHINGTON ISL NOT AVBL
STURGEON BAY   LGT RAIN  72  68  87 S9        29.87S
MANITOWOC      NOT AVBL
SHEBOYGAN      LGT RAIN  72  69  90 S9        29.86F
$$

LMZ563-521-522-541>543-240900-
LAKESHORE

STATION/POSITION TIME  TEMP    WIND        PRES    VSBY  WAVE
                       AIR SEA DIR/SP/G                  HT/PER
                 (UTC) (F)     (DEG/KT/KT) (MB)    (MI)  (FT/S)
SHEBOYGAN LKSHOR 0700   73     200/ 19/ 22 1011.2F
KEWAUNEE LKSHORE 0700   59     170/ 10/ 10 1010.9F
NORTHPORT PIER   0700   72     180/  2/  5 1011.9S
N MID LAKE BUOY  0650   71 69   CALM  /  2 1011.0F         0
S GREEN BAY BUOY 0730   75 75  190/ 10/ 12   N/A
CHAMBERS ISLAND  0700   72     130/  3/  5 1011.2F
MENOMINEE LKSHOR 0700   74     140/ 10/ 13 1009.8F
$$




USA.gov is the U.S. government's official web portal to all federal, state and local government web resources and services.